Location: Arcones
(41.1182°N, 3.7238°W)
Time: 02:13:35
(UTC+00:00)

Meteor 2-20 - Pass Details

Date: 11 December 2025
Orbit: 937 x 959 km, 82.5° (Epoch: 14 January)

Event Time Altitude Azimuth Distance (km) Brightness Sun altitude
Rises 18:10:23 0° 182° (S) 3,624 7.8 -15.3°
Reaches altitude 10° 18:12:52 10° 181° (S) 2,682 7.0 -15.7°
Maximum altitude 18:19:00 80° 96° (E) 976 4.4 -16.8°
Drops below altitude 10° 18:25:10 10° 10° (N) 2,692 6.6 -18.0°
Sets 18:27:40 0° 10° (N) 3,639 7.3 -18.4°
